IRIDIUM 141

Last updated on Sun Jun 21 2026 00:03:14 GMT+0000 (Coordinated Universal Time)

1 43077U 17083H 26171.41165677 -.00000016 00000+0 -12927-4 0 9997 2 43077 86.3962 320.6422 0002094 90.7699 269.3737 14.34217440444639
UTC large
Height (km)
Speed (km/s)
/
Latitude / Longitude
Inclination (degrees)
Orbital Period (minutes)
Azimuth
Elevation
Range (km)
Doppler Factor

Next 0 passes for location: London (51.5072 / 0.1276)

No passes found over London.
IRIDIUM 141